Location: Deerlick Astronomy Village
(33.5614°N, 82.7631°W)
Time: 09:26:07
(UTC-05:00)

CAS-4A - Pass Details

Date: 31 October 2020
Orbit: 528 x 544 km, 43.0° (Epoch: 28 November)

Event Time Altitude Azimuth Distance (km) Brightness Sun altitude
Exits shadow 06:32:46 21° 327° (NNW) 1,243 ? -16.5°
Maximum altitude 06:34:54 34° 19° (NNE) 875 ? -16.0°
Drops below altitude 10° 06:38:37 10° 86° (E) 1,767 ? -15.3°
Sets 06:40:59 0° 96° (E) 2,653 ? -14.8°
